HST

Last updated on Fri Feb 06 2026 00:02:16 GMT+0000 (Coordinated Universal Time)

1 20580U 90037B 26036.70367850 .00010539 00000+0 35578-3 0 9995 2 20580 28.4665 258.1179 0001948 113.1568 246.9233 15.28970067768418
UTC large
Height (km)
Speed (km/s)
/
Latitude / Longitude
Inclination (degrees)
Orbital Period (minutes)
Azimuth
Elevation
Range (km)
Doppler Factor

Next 0 passes for location: London (51.5072 / 0.1276)

Sorry there are no passes over London.